Temp
92 102 103 98 84 85 80 80 87 85 86 92 92 91 89 91 88 83 96 99 100 98 94 88 80 80 80 80 80 80 79 79 80 80 80 79 79 79 79 79 79 80 80 81 81 81 81 81 80
98 99 100 94 79 75 79 84 82 85 90 92 92 92 90 87 95 93 95 97 99 97 93 93 79 80 80 80 79 79 79 79 79 79 79 79 79 79 79 79 80 80 81 81 81 81 81 80 80
96 97 90 85 80 75 77 83 84 88 92 92 90 94 91 88 95 97 99 98 99 96 95 92 79 79 79 79 79 79 79 79 79 79 79 79 79 79 79 79 79 80 81 81 81 81 80 80 80
96 95 91 77 75 80 81 84 85 87 91 94 92 87 95 98 96 98 99 99 98 98 97 83 79 79 79 79 79 79 79 79 79 79 79 79 79 78 78 79 79 80 81 81 81 80 80 80 80
96 91 78 74 76 77 83 85 86 85 87 89 92 85 90 97 97 98 98 99 98 99 98 90 78 79 79 79 79 78 79 78 79 79 79 79 78 78 78 78 79 80 80 81 80 79 79 79 79
85 87 73 71 73 76 83 87 87 86 87 88 88 87 91 100 98 97 99 98 101 98 96 92 80 78 78 79 78 78 78 78 78 78 78 78 78 78 78 78 79 79 80 80 80 79 78 78 78
80 79 74 76 75 76 80 87 85 85 86 87 91 84 92 97 98 97 97 98 100 98 96 92 90 84 78 78 78 78 77 78 78 78 78 78 78 78 78 78 78 79 79 79 79 78 78 78 78
83 80 74 74 72 72 84 84 87 85 83 91 92 85 87 95 98 99 98 98 99 99 99 94 91 92 90 89 78 77 77 77 77 77 77 77 77 77 77 77 77 78 78 78 78 78 78 77 77
85 72 71 72 73 77 82 81 86 88 84 88 90 90 94 97 96 97 96 96 98 98 98 97 96 94 93 93 87 78 78 78 77 79 77 77 89 88 87 83 78 78 78 78 78 78 77 77 77
78 72 74 78 79 78 81 80 82 81 82 84 86 92 96 96 95 94 95 95 94 95 97 98 95 93 93 95 91 88 89 89 88 89 87 88 90 92 91 87 78 78 78 78 78 78 77 78 93
77 72 80 77 79 80 77 80 83 79 78 84 84 88 92 94 94 93 96 98 96 96 97 97 92 91 92 95 94 91 93 92 90 89 88 88 91 91 90 92 89 87 80 90 85 86 88 92 94
71 78 79 79 80 79 77 81 79 79 82 88 89 91 91 91 93 95 96 96 97 97 95 94 92 88 87 93 92 92 93 92 91 90 87 87 87 87 89 92 93 89 92 90 90 93 91 90 89
73 76 78 80 79 80 80 78 79 80 85 90 89 89 90 91 92 95 96 96 96 93 95 93 92 87 86 85 91 90 90 91 91 90 87 88 89 86 87 89 92 92 93 92 91 90 90 89 89
77 77 77 78 79 80 75 78 79 81 86 85 87 87 90 91 92 93 94 93 93 93 92 93 91 87 87 85 87 88 89 91 91 91 89 85 85 85 86 85 88 90 92 92 91 90 89 89 90
76 70 76 77 79 77 79 72 74 82 85 83 85 86 87 89 92 92 94 93 94 96 94 91 90 89 84 83 86 88 91 91 91 90 85 86 84 84 83 87 85 89 90 88 87 87 87 87 89
70 71 67 77 75 77 74 68 79 81 80 80 82 84 84 87 89 91 92 91 92 93 93 92 94 91 86 85 87 88 90 90 92 92 89 84 82 84 83 87 85 86 85 88 89 89 89 89 89
69 64 65 69 76 75 73 70 77 82 81 78 81 83 85 86 88 89 91 91 90 88 87 89 91 90 88 85 87 87 87 89 90 90 90 84 77 80 81 86 89 84 83 85 88 88 87 87 87
64 63 65 65 72 72 71 71 77 81 80 79 81 83 84 85 87 89 88 89 89 88 86 84 86 88 86 87 84 87 88 88 89 90 89 85 83 82 82 82 83 80 82 84 83 83 85 86 87
66 63 62 68 73 68 69 70 73 78 79 79 81 82 83 84 89 90 89 88 87 86 85 83 83 83 86 86 85 85 85 86 87 89 87 86 85 85 83 84 81 79 78 82 78 82 81 85 85
65 62 63 68 71 68 68 68 74 77 78 79 80 81 82 84 87 87 87 86 85 84 83 83 83 82 84 87 85 88 88 89 88 89 87 85 85 85 85 82 83 79 80 76 76 77 80 80 83
64 62 63 63 69 70 67 65 69 76 78 79 81 83 83 83 83 82 83 83 84 83 83 83 82 82 82 84 87 86 87 87 89 88 87 85 84 84 83 83 83 82 77 76 77 77 77 74 77
60 70 67 64 62 57 68 53 65 72 73 75 78 80 82 81 79 80 80 81 81 83 84 83 82 80 82 81 83 83 85 84 88 88 90 88 85 85 85 83 83 79 81 75 77 80 79 76 72
63 70 66 65 62 61 62 58 65 71 67 72 76 79 77 77 77 77 79 80 83 83 84 83 80 80 80 80 79 84 82 87 89 90 87 85 86 84 86 84 82 80 79 77 80 80 76 78 72
71 66 66 66 62 51 60 59 61 67 69 71 75 76 73 74 76 78 80 80 81 83 83 82 79 78 79 79 79 78 79 82 85 87 87 88 88 85 84 86 84 83 79 79 81 74 76 77 82
68 61 51 50 52 50 64 57 61 69 71 73 73 73 73 75 77 76 77 79 78 80 80 80 80 77 78 78 78 78 78 79 81 83 85 84 87 79 80 83 81 82 81 82 76 77 79 79 79
65 63 53 42 47 52 62 52 62 69 73 73 72 71 73 74 76 76 77 77 78 78 78 78 78 76 78 78 77 77 77 82 83 83 84 86 88 86 83 82 83 82 83 82 82 83 82 81 80
62 56 65 55 57 49 55 60 68 71 69 69 70 70 71 72 73 75 76 76 76 76 76 76 76 76 76 76 76 75 76 76 79 80 80 84 84 87 83 82 81 82 82 82 81 82 81 80 79
62 66 52 55 38 37 51 52 55 60 64 67 67 68 70 72 73 74 75 74 74 76 76 77 76 76 77 76 77 77 76 76 76 77 76 80 81 82 81 80 80 80 81 82 80 82 81 78 80
58 56 58 57 52 39 37 47 62 61 65 64 66 68 70 71 71 72 73 74 74 75 76 74 75 76 75 75 77 76 78 78 78 78 78 79 79 79 80 81 81 81 80 80 79 79 81 78 76
60 56 57 45 42 46 42 45 66 66 68 66 67 69 70 70 70 72 73 73 73 72 73 73 72 73 74 74 74 74 75 76 75 76 78 79 78 80 81 81 81 81 81 80 79 79 81 78 76
MSLP
1009.26 1008.29 1007.49 1006.50 1005.27 1003.52 1001.73 1002.26 1002.93 1002.44 1002.40 1003.05 1003.12 1002.44 1002.31 1002.38 1002.02 1002.71 1004.86 1005.39 1005.68 1006.40 1007.64 1008.88 1009.47 1009.90 1010.23 1010.67 1010.92 1011.02 1011.30 1011.55 1011.89 1012.33 1012.73 1013.00 1013.14 1013.34 1013.57 1013.81 1013.89 1013.98 1014.30 1014.54 1014.60 1014.70 1014.90 1015.15 1015.27
1009.15 1008.26 1006.89 1005.74 1004.29 1002.46 1001.64 1002.69 1002.72 1003.11 1003.29 1003.30 1003.23 1002.84 1002.54 1002.76 1003.37 1004.10 1004.88 1005.85 1006.16 1006.71 1007.55 1008.44 1009.62 1010.01 1010.36 1010.73 1011.04 1011.25 1011.38 1011.66 1011.98 1012.41 1012.73 1013.08 1013.28 1013.55 1013.70 1013.81 1014.03 1014.20 1014.44 1014.51 1014.66 1014.81 1015.05 1015.34 1015.58
1008.98 1008.36 1006.67 1005.20 1003.85 1002.37 1002.13 1003.16 1003.34 1003.41 1003.54 1003.19 1003.00 1003.29 1003.13 1003.30 1003.95 1004.05 1004.95 1005.97 1006.39 1007.07 1007.78 1008.44 1009.67 1010.12 1010.65 1010.98 1011.27 1011.45 1011.59 1011.82 1012.13 1012.51 1012.87 1013.09 1013.28 1013.68 1013.96 1014.11 1014.21 1014.43 1014.53 1014.70 1014.91 1015.15 1015.32 1015.50 1015.66
1008.38 1007.39 1006.99 1005.65 1003.84 1003.64 1003.36 1003.82 1004.00 1003.54 1003.53 1003.62 1003.45 1003.13 1003.48 1004.24 1004.26 1004.72 1005.44 1006.01 1006.42 1007.01 1007.51 1008.94 1009.71 1010.17 1010.61 1011.18 1011.44 1011.63 1011.89 1012.19 1012.44 1012.77 1013.01 1013.28 1013.41 1013.62 1013.87 1014.17 1014.53 1014.68 1014.74 1014.89 1015.15 1015.32 1015.50 1015.59 1015.62
1008.30 1007.33 1005.93 1005.22 1004.52 1005.07 1004.74 1004.67 1004.54 1004.07 1004.02 1003.82 1003.77 1003.74 1003.59 1004.39 1005.16 1005.41 1005.77 1006.14 1006.40 1006.78 1007.39 1008.86 1009.62 1010.03 1010.61 1011.01 1011.42 1011.66 1012.03 1012.35 1012.66 1012.99 1013.22 1013.44 1013.68 1013.84 1013.99 1014.10 1014.29 1014.64 1015.00 1015.17 1015.37 1015.50 1015.55 1015.60 1015.64
1007.51 1007.03 1005.79 1004.66 1004.90 1005.62 1005.33 1005.05 1004.89 1004.47 1004.52 1004.35 1004.18 1004.01 1003.71 1004.53 1004.90 1005.62 1005.94 1006.20 1006.34 1006.86 1007.40 1008.57 1009.85 1010.01 1010.44 1010.92 1011.38 1011.72 1012.08 1012.42 1012.76 1012.99 1013.38 1013.61 1013.91 1014.11 1014.22 1014.40 1014.55 1014.68 1014.95 1015.20 1015.51 1015.72 1015.72 1015.69 1015.70
1007.41 1006.36 1005.39 1004.82 1004.46 1005.02 1005.26 1005.60 1005.16 1004.82 1004.83 1004.43 1005.01 1004.38 1004.02 1004.57 1005.60 1005.91 1006.08 1006.32 1006.51 1007.04 1007.61 1008.42 1009.47 1010.14 1010.67 1011.10 1011.43 1011.74 1012.05 1012.39 1012.71 1013.12 1013.39 1013.75 1014.02 1014.35 1014.47 1014.53 1014.65 1014.79 1015.00 1015.25 1015.44 1015.72 1015.86 1015.88 1015.80
1007.65 1006.85 1005.56 1005.52 1005.20 1005.22 1005.17 1005.76 1005.61 1005.81 1005.37 1005.78 1005.28 1004.20 1004.10 1005.03 1005.76 1005.79 1006.01 1006.22 1006.49 1007.01 1007.38 1008.22 1008.94 1009.60 1010.03 1010.54 1011.38 1011.73 1012.06 1012.36 1012.61 1013.04 1013.48 1013.81 1014.21 1014.37 1014.56 1014.70 1014.85 1014.88 1015.04 1015.29 1015.48 1015.64 1015.78 1015.94 1016.00
1008.23 1006.98 1005.56 1005.43 1005.39 1005.14 1006.28 1005.79 1005.91 1006.57 1006.31 1005.75 1005.58 1005.33 1005.24 1005.66 1005.80 1005.55 1005.74 1006.02 1006.26 1006.78 1007.17 1007.79 1008.40 1008.96 1009.59 1009.96 1010.81 1011.67 1011.99 1012.28 1012.67 1012.87 1013.39 1013.80 1013.59 1013.85 1014.12 1014.39 1014.71 1015.05 1015.09 1015.16 1015.48 1015.63 1015.74 1015.84 1015.80
1007.55 1006.58 1005.53 1005.91 1006.04 1005.77 1006.04 1006.32 1006.27 1006.56 1006.11 1005.61 1005.53 1005.41 1005.32 1005.41 1005.42 1005.25 1005.21 1005.40 1005.94 1006.45 1006.78 1007.36 1008.02 1008.51 1008.98 1009.28 1010.10 1010.99 1011.28 1011.71 1012.08 1012.25 1012.51 1012.96 1013.03 1013.10 1013.36 1013.73 1014.77 1015.13 1015.37 1015.39 1015.34 1015.52 1015.63 1015.69 1014.40
1007.22 1006.33 1005.81 1006.51 1006.88 1006.49 1006.73 1006.60 1006.51 1006.45 1005.88 1005.57 1005.10 1005.28 1005.25 1005.07 1005.28 1005.21 1004.68 1004.68 1005.27 1006.11 1006.64 1007.14 1008.03 1008.43 1008.83 1008.87 1009.38 1010.21 1010.27 1010.78 1011.36 1011.78 1012.14 1012.32 1012.39 1012.90 1013.42 1013.36 1013.96 1014.40 1015.00 1014.65 1015.05 1014.98 1014.83 1014.13 1013.86
1007.26 1006.87 1006.60 1006.67 1006.60 1006.74 1006.49 1006.63 1006.15 1006.25 1005.92 1005.59 1005.46 1005.51 1005.30 1004.83 1004.72 1004.68 1004.34 1004.42 1004.82 1005.52 1006.30 1007.06 1007.63 1008.24 1008.74 1008.51 1009.29 1009.29 1009.55 1009.92 1010.41 1010.91 1011.77 1012.20 1012.35 1012.50 1012.69 1012.73 1012.90 1013.59 1013.56 1013.92 1014.13 1013.77 1013.96 1014.07 1014.11
1007.21 1006.48 1006.80 1006.79 1006.83 1006.61 1006.48 1006.21 1006.14 1005.90 1005.86 1005.59 1005.38 1005.40 1004.90 1004.46 1004.50 1004.38 1004.54 1004.79 1004.72 1005.21 1005.79 1006.66 1007.43 1008.12 1008.47 1008.90 1008.79 1009.13 1009.26 1009.61 1009.81 1010.27 1010.93 1011.47 1011.83 1012.12 1012.35 1012.39 1012.61 1012.70 1013.02 1013.47 1013.73 1013.89 1013.91 1013.79 1013.74
1006.63 1006.68 1006.57 1006.47 1006.28 1006.29 1006.40 1005.82 1005.80 1005.56 1005.51 1005.34 1005.18 1005.00 1004.66 1004.54 1004.37 1004.22 1004.44 1004.65 1004.87 1005.20 1005.67 1006.29 1006.93 1007.81 1008.23 1008.69 1008.72 1008.67 1009.08 1009.22 1009.53 1009.85 1010.36 1011.21 1011.51 1011.76 1012.05 1012.41 1012.44 1012.57 1012.79 1012.96 1013.35 1013.56 1013.82 1013.64 1013.33
1007.04 1006.71 1006.13 1005.93 1005.85 1005.87 1006.08 1005.59 1005.00 1005.34 1005.18 1005.16 1004.88 1004.93 1004.91 1004.65 1004.46 1004.29 1004.24 1004.30 1004.65 1004.80 1005.27 1005.84 1006.55 1007.18 1007.85 1008.26 1008.33 1008.25 1008.24 1008.68 1008.98 1009.37 1010.04 1010.42 1011.01 1011.29 1011.68 1011.88 1012.13 1011.98 1012.36 1012.87 1013.33 1013.42 1013.56 1013.62 1013.40
1006.94 1006.57 1005.42 1004.65 1005.55 1005.59 1006.32 1004.47 1004.22 1005.25 1005.20 1004.93 1004.69 1004.72 1004.74 1004.54 1004.42 1004.35 1004.41 1004.49 1004.49 1004.64 1004.82 1005.36 1005.77 1006.28 1007.01 1007.48 1007.81 1007.81 1007.72 1007.96 1007.92 1008.36 1009.04 1009.88 1010.15 1010.57 1011.09 1011.46 1011.68 1011.74 1011.91 1012.17 1012.73 1012.70 1012.88 1012.79 1012.86
1006.50 1005.36 1005.01 1004.74 1005.60 1005.54 1005.76 1004.25 1004.55 1004.90 1004.68 1004.59 1004.53 1004.35 1004.21 1004.17 1004.37 1004.52 1004.52 1004.59 1004.81 1005.04 1005.09 1005.14 1005.22 1005.64 1006.22 1007.03 1007.29 1007.35 1007.49 1007.56 1007.50 1007.61 1007.97 1008.98 1010.03 1010.11 1010.51 1010.04 1010.40 1011.54 1012.07 1011.46 1012.12 1012.56 1012.30 1012.37 1012.60
1004.72 1005.36 1005.28 1005.09 1005.35 1005.60 1005.10 1004.52 1004.33 1004.35 1004.25 1004.09 1003.98 1003.89 1003.88 1003.81 1003.93 1004.13 1004.67 1004.75 1004.87 1005.04 1005.24 1005.35 1005.34 1005.20 1005.78 1006.14 1006.70 1006.75 1006.77 1006.89 1007.06 1007.05 1007.33 1008.01 1008.88 1009.37 1009.65 1010.02 1010.13 1011.19 1011.06 1011.68 1011.87 1012.26 1012.35 1012.12 1012.10
1006.10 1005.94 1005.51 1005.36 1005.51 1005.60 1004.76 1004.24 1004.15 1004.02 1003.79 1003.59 1003.33 1003.30 1003.44 1003.47 1003.57 1003.77 1004.19 1004.63 1004.95 1005.03 1005.10 1005.10 1005.14 1005.27 1005.35 1005.46 1005.47 1005.71 1005.60 1005.98 1006.38 1006.59 1007.02 1007.44 1007.79 1008.20 1008.85 1009.34 1010.18 1010.82 1010.71 1011.10 1011.32 1011.44 1012.01 1011.88 1012.60
1006.43 1005.93 1005.31 1005.14 1005.24 1005.41 1004.58 1003.78 1003.54 1003.42 1003.19 1003.10 1002.92 1002.84 1002.88 1002.86 1002.93 1003.40 1003.93 1004.70 1004.97 1005.05 1005.09 1005.09 1005.13 1005.15 1005.03 1004.92 1005.02 1004.94 1005.07 1005.12 1005.62 1005.97 1006.32 1006.73 1007.18 1007.38 1007.87 1008.52 1009.15 1010.02 1010.22 1010.73 1010.86 1011.42 1011.13 1011.83 1012.67
1005.95 1005.49 1004.99 1005.00 1004.85 1004.86 1004.30 1003.30 1002.63 1002.28 1002.66 1002.76 1002.57 1002.56 1002.60 1002.75 1003.13 1003.90 1004.33 1004.57 1004.70 1004.93 1005.07 1004.99 1004.95 1004.88 1004.99 1004.66 1004.44 1004.66 1004.88 1004.94 1004.68 1005.03 1005.50 1005.87 1006.45 1006.79 1007.10 1007.54 1008.19 1009.01 1009.89 1009.92 1010.55 1010.55 1010.41 1011.56 1012.93
1005.04 1005.00 1005.12 1005.13 1004.93 1003.73 1003.56 1002.44 1002.13 1001.91 1001.89 1002.21 1002.23 1002.25 1002.30 1002.77 1003.97 1004.35 1004.49 1004.52 1004.64 1004.66 1004.73 1004.73 1004.80 1004.75 1004.51 1004.55 1004.17 1003.94 1003.67 1003.67 1003.59 1004.00 1004.16 1004.71 1005.71 1006.04 1006.32 1006.69 1007.39 1008.34 1008.78 1009.49 1010.31 1009.50 1009.69 1010.48 1011.01
1004.93 1004.91 1005.20 1005.01 1004.63 1004.09 1003.29 1002.39 1001.12 1001.32 1001.67 1001.74 1001.85 1002.12 1003.01 1004.03 1004.48 1004.54 1004.59 1004.56 1004.38 1004.31 1004.19 1004.30 1004.39 1004.39 1004.35 1004.34 1004.18 1003.59 1003.47 1003.08 1003.00 1002.98 1003.35 1003.94 1004.53 1005.30 1005.49 1005.96 1006.63 1007.35 1007.90 1007.78 1008.77 1009.16 1009.27 1009.41 1009.87
1005.08 1005.21 1004.86 1004.65 1004.25 1003.07 1002.45 1002.00 1000.71 1000.41 1000.60 1001.25 1002.04 1002.56 1003.95 1004.37 1004.41 1004.52 1004.60 1004.58 1004.32 1004.25 1004.14 1004.08 1004.03 1003.88 1003.89 1003.85 1003.62 1003.37 1002.87 1002.42 1002.23 1002.14 1002.48 1003.09 1003.53 1004.33 1004.52 1004.86 1005.60 1006.33 1007.21 1007.75 1008.29 1008.79 1009.21 1009.45 1008.52
1004.78 1004.91 1003.90 1003.17 1002.40 1001.21 1001.21 1001.32 1000.84 1000.87 1001.49 1001.86 1002.18 1002.82 1003.89 1004.26 1004.19 1004.56 1004.54 1004.34 1004.38 1004.10 1003.98 1003.78 1003.52 1003.41 1003.34 1003.20 1003.00 1002.90 1002.66 1002.39 1001.98 1001.98 1002.00 1002.34 1002.29 1003.33 1004.07 1004.32 1004.93 1005.48 1006.18 1006.84 1007.61 1008.09 1008.35 1008.37 1008.34
1003.57 1003.82 1003.44 1002.30 1001.68 1000.99 1001.12 1000.72 1000.71 1001.81 1002.04 1002.59 1003.21 1003.78 1003.93 1004.11 1004.31 1004.43 1004.37 1004.42 1004.21 1004.04 1003.88 1003.74 1003.37 1003.04 1002.87 1002.66 1002.52 1002.39 1002.09 1001.72 1001.45 1001.35 1001.56 1001.51 1001.39 1001.92 1002.99 1003.68 1004.14 1004.91 1005.41 1006.04 1006.45 1006.77 1007.20 1007.37 1007.77
1003.99 1004.08 1004.07 1003.73 1003.24 1002.25 1001.76 1001.03 1000.76 1001.17 1001.98 1002.61 1003.30 1003.75 1003.96 1004.31 1004.34 1004.09 1004.05 1004.18 1004.27 1004.07 1003.81 1003.73 1003.34 1002.88 1002.55 1002.34 1002.07 1001.86 1001.62 1001.44 1000.89 1000.89 1001.31 1001.36 1001.24 1001.36 1002.54 1003.23 1003.55 1004.17 1004.66 1005.17 1005.58 1005.72 1005.93 1006.52 1006.94
1004.99 1004.81 1004.71 1004.46 1003.58 1002.58 1001.46 1000.85 1000.68 1001.54 1001.70 1002.41 1003.27 1003.67 1004.10 1004.28 1004.18 1004.18 1004.05 1004.00 1004.14 1003.96 1003.78 1003.50 1003.29 1002.68 1002.26 1002.18 1001.74 1001.41 1001.24 1001.19 1001.20 1001.23 1001.20 1001.03 1001.37 1001.77 1002.50 1003.07 1003.50 1004.12 1004.33 1004.63 1004.90 1004.87 1005.24 1005.69 1006.04
1005.24 1004.99 1004.92 1005.15 1004.64 1003.83 1003.13 1002.03 1001.83 1002.14 1002.08 1002.79 1003.54 1003.82 1003.91 1004.05 1004.16 1004.23 1004.23 1004.30 1004.34 1004.23 1003.86 1003.71 1003.36 1002.75 1002.50 1002.32 1001.79 1001.50 1001.01 1000.90 1000.98 1001.20 1001.18 1001.10 1001.43 1001.77 1002.14 1002.73 1002.90 1003.44 1003.90 1004.28 1004.51 1004.61 1004.72 1005.25 1005.72
1005.62 1005.54 1005.30 1005.17 1005.08 1004.71 1004.33 1002.72 1002.36 1002.39 1002.52 1003.08 1003.72 1003.50 1004.08 1004.29 1004.44 1004.39 1004.32 1004.25 1004.32 1004.36 1004.18 1003.94 1003.87 1003.32 1002.88 1002.57 1002.43 1002.08 1001.95 1001.68 1001.40 1001.16 1001.10 1001.21 1001.40 1001.72 1002.01 1002.55 1002.84 1003.12 1003.50 1003.76 1004.21 1004.42 1004.45 1004.96 1005.27
Wind_Speed
15 12 7 7 9 7 9 6 1 2 3 7 1 5 8 5 9 7 6 9 15 17 18 18 14 13 12 12 13 16 17 17 17 16 15 14 14 14 13 12 12 12 11 11 11 11 10 10 10
11 12 7 4 9 10 8 7 4 5 6 4 1 4 1 6 6 7 10 8 15 17 17 19 14 14 13 14 13 15 17 16 16 16 15 14 14 13 13 13 12 12 12 12 11 11 10 9 9
8 7 8 5 9 11 4 7 4 3 6 6 0 3 3 4 5 3 7 11 15 15 16 16 14 14 13 13 13 14 15 15 15 15 15 14 14 12 11 11 12 12 12 11 10 10 9 9 8
4 5 6 10 12 3 5 6 2 0 5 7 3 4 3 8 3 4 13 13 16 16 17 18 15 14 14 14 13 12 12 11 12 13 14 13 13 13 13 12 9 10 11 11 10 10 9 9 8
4 4 10 10 12 2 6 2 3 3 2 5 7 3 3 8 8 7 12 11 14 16 15 17 15 16 14 15 14 13 12 11 10 11 12 12 11 11 12 12 12 11 9 10 10 9 9 8 8
7 5 10 15 14 8 8 6 7 6 2 4 4 4 2 8 5 5 8 9 12 15 15 16 15 15 15 14 14 13 12 12 10 10 9 10 9 10 10 10 10 10 9 9 9 8 8 8 8
12 8 15 17 13 12 11 7 10 6 8 3 8 5 2 11 8 2 5 7 11 14 15 15 16 15 13 12 12 13 12 12 11 9 8 8 8 8 9 9 9 8 8 8 9 8 7 7 7
6 6 14 10 12 17 8 10 4 9 8 6 4 6 3 12 9 3 7 8 12 14 15 15 16 17 16 15 13 13 12 12 11 10 9 7 6 8 8 7 8 9 8 8 8 8 7 6 6
5 7 12 16 13 10 4 10 6 4 11 10 8 12 8 9 6 7 7 9 11 12 14 14 16 16 15 15 14 14 15 13 11 11 9 9 9 11 12 9 11 8 8 8 8 8 7 6 8
11 11 14 5 12 9 6 8 9 9 12 12 11 10 11 10 6 8 10 11 13 14 14 13 14 15 15 12 14 14 14 12 12 13 13 11 11 9 7 7 7 6 6 6 7 7 7 8 8
10 14 9 7 9 7 10 12 10 10 15 14 13 10 12 10 10 8 10 12 14 13 12 14 14 13 15 13 11 9 9 9 10 14 12 11 9 8 8 6 7 8 9 8 9 9 8 9 6
10 13 10 9 6 11 12 11 12 11 14 12 11 12 12 12 12 11 8 11 11 12 14 15 15 14 14 10 11 11 10 10 10 12 14 9 8 8 8 7 8 7 6 8 6 5 6 6 8
14 9 9 10 10 11 11 14 14 13 10 13 8 10 11 9 10 11 7 9 8 11 13 14 15 15 14 14 11 10 10 10 11 11 13 11 10 8 9 8 7 7 7 6 6 6 5 6 8
5 9 9 8 11 9 11 15 9 9 7 9 11 10 9 8 9 7 9 9 9 9 11 12 16 15 15 15 15 12 11 12 11 11 12 15 10 8 8 8 9 7 7 7 6 5 6 6 5
4 10 11 13 13 12 9 15 16 13 11 10 11 7 8 11 9 10 9 8 10 9 9 12 14 15 17 16 16 13 12 12 12 11 9 15 14 12 10 9 9 8 7 7 7 7 7 7 7
8 7 12 6 4 5 8 12 6 3 5 6 5 6 5 5 8 8 10 11 12 12 10 12 11 15 17 17 14 12 13 13 13 13 12 16 13 14 12 10 10 10 7 8 8 7 7 6 6
11 13 10 7 5 6 9 8 6 6 9 7 8 7 7 6 6 6 10 10 12 12 12 13 13 15 16 16 14 15 14 12 12 12 12 15 11 14 11 10 10 10 8 7 7 8 7 6 6
10 11 8 10 7 8 11 13 12 12 12 10 11 10 9 9 9 4 4 6 8 10 11 13 12 13 15 12 12 12 12 12 13 13 13 16 14 17 13 10 6 8 8 8 8 8 7 7 7
7 9 11 9 9 10 13 12 10 11 11 13 14 12 11 12 10 8 6 5 8 9 8 9 12 13 12 12 12 12 13 12 11 13 15 16 15 17 14 11 11 11 10 9 8 9 7 7 7
12 13 14 11 9 7 15 16 14 14 15 14 14 14 14 14 11 9 6 7 6 8 10 11 10 13 14 12 11 11 11 11 12 12 13 15 17 17 16 14 12 13 11 11 9 5 5 5 4
14 14 12 12 11 13 18 19 20 16 13 12 16 16 14 12 9 7 7 8 9 8 8 9 10 11 13 15 11 10 10 9 11 12 12 15 18 18 17 17 14 12 7 8 12 14 12 8 6
14 12 13 13 13 13 4 14 16 15 10 14 12 11 12 4 4 6 7 8 9 10 10 9 9 10 11 13 13 15 14 15 14 12 13 12 17 17 17 17 15 12 10 8 11 9 11 10 9
13 9 9 11 14 17 18 14 13 12 12 12 11 8 5 1 2 5 8 10 12 12 11 11 10 10 11 12 14 13 17 14 13 12 13 13 12 17 18 17 17 14 11 11 16 14 14 12 8
8 11 15 17 13 18 19 19 14 11 9 2 6 6 1 4 4 6 8 10 12 13 13 12 12 13 12 12 14 17 18 16 15 14 12 11 12 13 17 17 15 14 13 13 16 11 14 14 13
15 13 13 16 14 16 14 8 12 13 7 12 10 3 3 6 7 9 11 12 13 15 16 14 13 14 13 13 14 16 18 19 17 16 12 13 13 10 13 15 13 12 13 15 10 12 15 14 13
15 14 14 20 15 15 6 10 6 3 5 9 3 4 5 7 10 12 13 14 15 16 14 14 15 15 14 14 15 15 17 13 14 14 13 13 12 12 15 16 15 16 16 16 14 12 13 13 13
11 11 13 20 20 18 17 18 16 11 10 7 10 5 7 12 14 16 16 14 14 14 15 12 12 13 13 14 13 14 15 15 13 14 11 12 10 9 13 14 14 15 16 15 15 12 13 12 12
13 10 11 10 12 16 10 10 8 10 14 8 8 6 10 13 15 14 14 16 15 15 12 11 11 12 11 11 10 10 11 13 14 12 15 12 11 11 12 12 12 12 12 12 13 12 14 12 11
11 14 15 14 13 13 13 9 7 5 6 5 8 10 16 16 15 13 13 13 12 13 13 11 12 13 8 11 10 7 6 9 9 10 11 9 9 9 9 9 9 10 11 11 11 12 12 13 13
12 17 18 12 9 11 11 14 16 9 11 3 13 15 16 13 12 12 13 10 10 10 11 11 11 12 11 8 8 8 8 7 7 8 7 7 7 8 9 10 10 10 11 10 10 10 12 12 13
Wind_Direction
301 323 301 247 241 239 235 137 341 83 161 14 350 338 16 356 355 15 101 144 140 148 151 163 146 147 149 152 160 155 156 155 158 160 161 158 155 150 147 144 140 138 142 138 131 131 132 139 144
315 320 244 276 253 219 202 115 132 46 20 352 135 247 256 74 28 91 138 138 160 149 154 165 152 149 150 163 159 160 155 157 158 160 161 160 157 155 151 149 147 149 149 145 142 141 144 151 150
290 299 277 276 250 244 221 166 98 61 66 38 259 345 13 51 68 38 101 145 157 157 160 152 155 148 151 155 157 157 155 157 159 161 164 160 159 156 154 152 154 157 155 149 148 151 151 154 157
289 211 212 247 234 244 301 149 52 12 123 46 34 63 156 50 16 29 141 154 158 167 163 137 154 151 152 159 156 149 149 155 160 164 163 164 163 157 155 154 158 162 159 155 157 154 152 159 161
223 250 249 239 243 216 232 246 285 300 358 30 350 51 30 79 63 115 149 161 168 166 168 160 161 155 158 161 158 151 151 154 161 169 164 164 164 160 161 161 161 164 163 160 161 159 159 164 170
225 264 235 230 218 215 245 252 268 265 273 321 329 317 97 108 84 120 154 172 172 166 168 162 167 161 160 161 159 156 158 155 161 164 168 166 169 170 167 167 165 164 166 163 164 170 170 174 178
248 227 245 246 246 228 235 254 257 283 270 242 338 287 14 67 27 133 173 170 174 170 174 165 177 173 159 159 160 163 162 163 161 166 167 172 174 179 178 174 170 168 169 165 167 182 188 192 197
254 256 247 239 238 242 226 241 270 255 289 339 275 253 244 2 338 247 192 181 180 179 180 175 181 182 183 177 171 170 170 169 169 171 173 170 186 190 190 178 181 178 177 173 176 192 204 214 224
217 238 240 227 234 228 235 230 163 286 270 275 283 288 318 330 322 224 202 185 192 189 187 187 183 183 191 187 178 178 178 178 178 180 183 170 210 195 190 204 152 191 188 182 192 205 213 228 238
215 227 243 201 259 261 271 263 274 277 270 252 257 254 275 301 306 258 210 201 201 195 193 193 195 188 193 192 180 196 189 196 201 203 197 213 208 208 224 176 155 200 212 208 203 212 226 233 249
205 242 243 230 247 268 262 263 262 260 259 259 260 267 269 285 275 257 248 228 195 201 201 201 195 194 204 199 186 196 193 195 198 207 209 205 204 201 203 204 194 206 194 217 200 201 226 234 264
231 236 256 258 267 253 256 269 267 249 263 284 272 270 276 268 266 270 244 219 220 205 201 203 195 195 207 203 201 196 202 196 198 198 199 213 208 202 216 207 200 201 200 220 231 222 245 256 256
233 233 240 249 255 262 274 262 262 265 267 259 258 269 272 272 266 262 247 260 266 214 212 212 205 204 198 217 202 213 210 202 202 197 197 209 209 203 199 208 219 199 205 207 229 240 249 247 247
167 249 248 249 256 253 257 265 251 246 217 254 259 266 265 267 280 283 262 245 240 245 234 215 211 205 205 211 217 205 204 209 212 206 202 207 209 207 208 209 206 213 217 214 227 233 258 254 268
230 260 241 242 245 237 254 260 248 249 258 261 269 268 266 268 283 279 288 273 241 241 235 223 220 208 210 211 216 214 207 214 207 209 217 203 206 208 213 204 210 214 205 222 217 223 227 252 248
243 248 255 169 259 201 217 261 164 304 209 233 244 261 246 256 277 293 296 285 285 283 270 228 226 215 214 219 218 218 215 212 213 212 202 211 201 213 203 214 211 208 202 203 223 217 230 235 254
207 255 206 236 227 254 227 262 170 216 242 261 255 257 262 256 237 261 292 282 264 262 270 265 241 233 221 219 223 221 220 222 219 214 211 196 202 210 226 214 213 210 199 201 219 232 226 237 247
242 218 215 246 162 227 257 254 258 255 263 253 253 255 265 269 264 245 258 293 286 266 262 260 258 239 229 225 218 229 223 221 223 219 215 203 208 214 213 220 209 197 196 209 209 230 218 243 246
269 261 258 257 260 258 261 266 266 261 260 256 252 256 262 264 270 263 255 280 295 294 286 270 263 249 224 218 217 216 219 218 223 227 219 217 215 213 206 217 201 194 191 224 197 183 216 239 241
238 249 253 265 263 254 273 274 269 261 260 256 261 260 261 266 258 260 316 312 313 307 300 296 275 253 231 225 224 233 229 224 222 224 226 218 217 216 209 208 203 202 198 184 180 214 178 211 253
234 251 263 273 294 272 262 264 254 244 238 261 252 255 265 270 278 305 299 318 327 321 312 301 288 273 250 246 232 227 239 237 230 222 222 218 218 216 211 199 209 195 192 185 183 178 163 162 195
250 237 256 272 274 276 323 288 290 270 255 249 253 260 259 357 323 315 321 332 329 324 315 302 294 275 260 249 243 235 230 227 222 228 224 220 215 218 209 209 197 185 183 178 216 196 185 169 162
261 276 262 276 276 283 270 263 261 245 242 245 253 288 45 321 319 344 344 338 327 331 326 317 310 287 262 257 241 241 230 242 239 227 236 209 208 216 210 201 183 189 202 196 217 204 187 189 188
260 266 258 260 264 259 266 258 269 260 269 237 260 190 222 331 316 328 328 324 328 325 322 321 311 300 290 267 245 239 252 238 241 228 227 231 213 204 209 203 201 199 197 205 212 202 220 228 234
234 259 266 258 242 255 251 257 277 297 260 285 313 321 279 301 332 333 328 330 325 319 322 315 317 306 295 280 264 253 247 245 242 237 216 232 214 206 204 202 197 206 207 208 197 205 224 221 228
271 259 255 273 276 284 222 241 236 57 294 313 252 239 272 327 332 329 331 331 323 322 311 312 313 315 313 289 273 262 256 245 239 230 235 225 222 196 196 194 195 203 204 209 212 215 219 221 219
278 242 276 282 275 270 267 260 253 239 249 211 231 255 312 333 326 329 331 332 332 321 313 308 304 304 316 303 282 266 254 245 242 238 216 226 217 192 184 196 199 203 209 213 212 222 220 229 228
259 281 259 225 270 270 253 256 266 198 242 187 237 276 317 321 323 327 328 334 335 328 313 301 310 315 319 313 294 265 250 238 229 218 205 193 182 191 178 192 192 204 208 220 221 228 220 222 221
232 242 239 272 270 272 280 268 74 285 261 225 273 314 322 322 321 317 316 323 327 335 341 329 319 322 346 340 319 289 269 226 217 208 199 179 169 175 184 200 198 211 218 219 226 237 242 230 231
238 267 273 256 257 262 281 262 277 250 252 242 283 319 311 308 303 305 308 308 316 330 338 339 339 340 331 343 329 316 286 259 221 209 189 176 177 186 190 197 201 204 211 205 220 223 230 233 231